Location: Newark
(45.1381°N, 84.1621°W)
Time: 02:12:54
(UTC+00:00)

ISS - Pass Details

Date: 24 December 2019
Orbit: 415 x 421 km, 51.6° (Epoch: 19 January)

Event Time Altitude Azimuth Distance (km) Brightness Sun altitude
Exits shadow 12:13:01 - 245° (WSW) 1,789 -1.0 -10.2°
Reaches altitude 10° 12:13:46 10° 246° (WSW) 1,484 -1.4 -10.1°
Maximum altitude 12:17:05 75° 332° (NNW) 432 -3.8 -9.6°
Drops below altitude 10° 12:20:26 10° 59° (ENE) 1,492 -0.5 -9.0°
Sets 12:22:33 0° 61° (ENE) 2,358 0.6 -8.7°
